Location: Unspecified
(0.0000°N, 0.0000°E)
Time: 11:53:55
(UTC+00:00)

SEEDS - Pass Details

Date: 27 September 2021
Orbit: 585 x 601 km, 97.6° (Epoch: 15 October)

Event Time Altitude Azimuth Distance (km) Brightness Sun altitude
Rises 03:59:27 0° 19° (NNE) 2,833 ? -27.9°
Reaches altitude 10° 04:01:39 10° 23° (NNE) 1,934 ? -27.3°
Maximum altitude 04:05:46 56° 101° (E) 716 ? -26.3°
Drops below altitude 10° 04:09:54 10° 180° (S) 1,941 ? -25.3°
Sets 04:12:06 0° 184° (S) 2,844 ? -24.7°
